Weather History for Yuma MCAS, AZ

Change the Weather History Date:

Friday, February 15, 2013

  Actual Average Record
Temperature  
Mean Temperature 68 °F 62 °F  
Max Temperature 78 °F 74 °F 89 °F (2014)
Min Temperature 58 °F 50 °F 30 °F (1990)
Degree Days  
Heating Degree Days 0 4  
Month to date heating degree days 79 70  
Since 1 July heating degree days 600 578  
Cooling Degree Days 3 1  
Month to date cooling degree days 6 14  
Year to date cooling degree days 9 20  
Growing Degree Days 17 (Base 50)    
Moisture  
Dew Point 21 °F    
Average Humidity 18    
Maximum Humidity 25    
Minimum Humidity 10    
Precipitation  
Precipitation 0.00 in 0.02 in 0.34 in (1992)
Month to date precipitation T 0.20  
Year to date precipitation 1.02 0.57  
Sea Level Pressure  
Sea Level Pressure 30.17 in    
Wind  
Wind Speed 10 mph (North)    
Max Wind Speed 16 mph    
Max Gust Speed 21 mph    
Visibility 10 miles    
Events      
T = Trace of Precipitation, MM = Missing Value Source: NWS Daily Summary

Daily Weather History Graph

Daily Weather History Graph

Search for Another Location

Airport:

Trip Planner

Search our weather history database for the weather conditions in past years. The results will help you decide how hot, cold, wet, or windy it might be!

Date:

Astronomy

Feb. 15, 2013 Rise Set
Actual Time 7:21 AM MST 6:24 PM MST
Civil Twilight 6:55 AM MST 6:49 PM MST
Nautical Twilight 6:27 AM MST 7:18 PM MST
Astronomical Twilight 5:58 AM MST 7:47 PM MST
Moon 10:21 AM MST (2/15) No Moon Set
Length of Visible Light 11h 53m
Length of Day
11h 03m
Waxing Crescent, 31% of the Moon is Illuminated
Feb 15
Waxing Crescent
Feb 17
First Quarter
Feb 25
Full
Mar 4
Last Quarter
Mar 11
New

Hourly Weather History & Observations

Time (MST) Temp. Dew Point Humidity Pressure Visibility Wind Dir Wind Speed Gust Speed Precip Events Conditions
12:55 AM 63.0 °F 24.1 °F 23% 30.12 in 10.0 mi North 6.9 mph - N/A   Mostly Cloudy
1:55 AM 63.0 °F 24.1 °F 23% 30.12 in 10.0 mi North 11.5 mph - N/A   Overcast
2:55 AM 63.0 °F 23.0 °F 22% 30.12 in 10.0 mi NNE 12.7 mph 18.4 mph N/A   Overcast
3:55 AM 63.0 °F 21.9 °F 21% 30.12 in 10.0 mi North 11.5 mph - N/A   Overcast
4:55 AM 62.1 °F 21.9 °F 21% 30.12 in 10.0 mi NNE 13.8 mph - N/A   Overcast
5:55 AM 61.0 °F 21.9 °F 22% 30.14 in 10.0 mi NNE 16.1 mph - N/A   Mostly Cloudy
6:55 AM 57.9 °F 23.0 °F 26% 30.16 in 10.0 mi North 6.9 mph - N/A   Mostly Cloudy
7:55 AM 59.0 °F 21.9 °F 24% 30.19 in 10.0 mi North 11.5 mph - N/A   Mostly Cloudy
8:55 AM 60.1 °F 23.0 °F 24% 30.22 in 10.0 mi North 11.5 mph - N/A   Mostly Cloudy
9:55 AM 62.1 °F 24.1 °F 23% 30.24 in 10.0 mi North 12.7 mph - N/A   Mostly Cloudy
10:55 AM 66.9 °F 24.1 °F 20% 30.23 in 10.0 mi North 11.5 mph - N/A   Mostly Cloudy
11:55 AM 70.0 °F 24.1 °F 18% 30.24 in 10.0 mi North 9.2 mph - N/A   Mostly Cloudy
12:55 PM 72.0 °F 21.9 °F 15% 30.22 in 10.0 mi NNE 6.9 mph - N/A   Mostly Cloudy
1:55 PM 73.0 °F 21.9 °F 15% 30.18 in 10.0 mi North 9.2 mph - N/A   Mostly Cloudy
2:55 PM 77.0 °F 17.1 °F 10% 30.16 in 10.0 mi NNE 10.4 mph 18.4 mph N/A   Mostly Cloudy
3:55 PM 77.0 °F 19.0 °F 11% 30.15 in 10.0 mi North 8.1 mph - N/A   Mostly Cloudy
4:55 PM 75.9 °F 19.0 °F 12% 30.14 in 10.0 mi NNW 9.2 mph - N/A   Mostly Cloudy
5:55 PM 73.0 °F 17.1 °F 12% 30.15 in 10.0 mi North 11.5 mph - N/A   Mostly Cloudy
6:55 PM 71.1 °F 17.1 °F 13% 30.16 in 10.0 mi North 9.2 mph - N/A   Mostly Cloudy
7:55 PM 66.9 °F 19.0 °F 16% 30.18 in 10.0 mi North 8.1 mph - N/A   Mostly Cloudy
8:55 PM 64.9 °F 19.9 °F 18% 30.19 in 10.0 mi North 6.9 mph - N/A   Mostly Cloudy
9:55 PM 63.0 °F 18.0 °F 18% 30.20 in 10.0 mi NNE 5.8 mph - N/A   Mostly Cloudy
10:55 PM 59.0 °F 21.0 °F 23% 30.20 in 10.0 mi NNE 4.6 mph - N/A   Scattered Clouds
11:55 PM 60.1 °F 19.9 °F 21% 30.21 in 10.0 mi NNE 5.8 mph - N/A   Scattered Clouds